EW0600 Weather Reports


Display with metric or nautical units.
time (UTC)temp
F
wind
direction
speed
MPH
gust
MPH
rain 1hr
in
rain 24hr
in
rain mn
in
humidity
%
barometer
mb
20260903183003 75 155 6.0 14.0 0.30 0.57 0.57 95 1004.6
20260903182356 75 200 7.0 15.0 0.00 0.58 0.58 95 1004.6
20260903181602 74 143 7.0 16.0 0.30 0.57 0.57 96 1004.5
20260903181352 74 122 7.0 19.0 0.00 0.58 0.58 96 1004.7
20260903180003 72 132 8.0 20.0 0.30 0.57 0.57 96 1004.9
20260903175238 73 167 9.0 18.0 0.14 0.58 0.58 95 1004.8
20260903174602 73 151 11.0 19.0 0.31 0.56 0.56 94 1004.4
20260903174244 74 174 7.0 17.0 2.57 0.44 0.51 94 1004.4
20260903173236 79 123 5.0 14.0 0.00 0.28 0.28 84 1004.3
20260903173004 78 136 7.0 11.0 0.04 0.28 0.28 85 1004.8
20260903172205 78 136 3.0 9.0 0.00 0.28 0.28 88 1004.8
20260903171623 76 139 5.0 8.0 0.10 0.28 0.28 90 1004.9
20260903171159 75 130 4.0 10.0 0.00 0.28 0.28 93 1004.9
20260903170141 73 272 3.0 10.0 0.05 0.28 0.28 96 1005.3
20260903170007 73 83 3.0 11.0 0.13 0.28 0.28 96 1005.4
20260903165155 73 163 1.0 8.0 0.18 0.28 0.28 96 1005.5
20260903164607 73 138 1.0 9.0 0.11 0.26 0.26 96 1005.5
20260903164123 73 127 4.0 8.0 0.00 0.24 0.24 96 1005.3
20260903163002 73 124 4.0 7.0 0.09 0.24 0.24 93 1005.5
20260903162000 77 125 3.0 8.0 0.66 0.21 0.23 83 1005.5
20260903161603 77 138 4.0 9.0 0.03 0.18 0.18 83 1005.4
20260903160003 78 143 6.0 10.0 0.00 0.15 0.15 81 1005.6
20260903155847 79 119 5.0 9.0 0.00 0.14 0.14 81 1005.5
20260903154855 77 149 3.0 7.0 0.00 0.14 0.14 84 1005.5
20260903154603 76 114 4.0 8.0 0.00 0.15 0.15 85 1005.6
20260903153825 77 91 2.0 7.0 0.00 0.14 0.14 83 1005.5
20260903153003 76 116 3.0 9.0 0.00 0.15 0.15 83 1005.5
20260903152754 77 115 5.0 9.0 0.00 0.14 0.14 82 1005.4
20260903151742 78 127 4.0 9.0 0.00 0.14 0.14 82 1005.2
20260903151603 77 126 4.0 10.0 0.00 0.15 0.15 82 1005.4
20260903150747 77 105 3.0 7.0 0.00 0.14 0.14 85 1005.5
20260903150002 75 119 3.0 6.0 0.00 0.15 0.15 87 1005.6
20260903145745 75 123 2.0 5.0 0.00 0.14 0.14 86 1005.5
20260903144750 75 110 2.0 4.0 0.00 0.14 0.14 87 1005.5
20260903144602 75 103 2.0 5.0 0.00 0.15 0.15 87 1005.5
20260903143724 75 106 2.0 4.0 0.00 0.14 0.14 88 1005.3
20260903143006 74 98 2.0 5.0 0.00 0.15 0.15 87 1005.5
20260903142720 74 98 1.0 5.0 0.00 0.14 0.14 87 1005.3
20260903141741 74 82 2.0 5.0 0.00 0.14 0.14 88 1005.2
20260903141603 74 97 3.0 6.0 0.00 0.15 0.15 87 1005.3
20260903140759 74 106 2.0 5.0 0.00 0.14 0.14 86 1005.4
20260903140010 73 98 2.0 6.0 0.00 0.15 0.15 88 1005.5
20260903135819 74 94 2.0 6.0 0.00 0.14 0.14 87 1005.5
20260903134816 73 118 3.0 7.0 0.00 0.14 0.14 87 1005.4
20260903134601 73 118 3.0 7.0 0.00 0.15 0.15 87 1005.4
20260903133003 73 119 5.0 8.0 0.00 0.15 0.15 86 1005.5
20260903132700 74 131 2.0 5.0 0.00 0.14 0.14 87 1005.4
20260903131637 73 125 3.0 8.0 0.00 0.14 0.14 87 1005.3
20260903131611 72 121 2.0 9.0 0.00 0.15 0.15 87 1005.4
20260903130633 72 123 3.0 8.0 0.00 0.14 0.14 88 1005.3
20260903130003 71 132 4.0 9.0 0.00 0.15 0.15 88 1005.3
20260903125620 72 134 3.0 8.0 0.00 0.14 0.14 88 1005.3
20260903124630 72 161 3.0 12.0 0.00 0.14 0.14 88 1005.2
20260903124603 71 176 3.0 8.0 0.00 0.15 0.15 88 1005.2
20260903123633 72 126 6.0 12.0 0.00 0.14 0.14 88 1005.0
20260903123003 71 112 8.0 13.0 0.00 0.15 0.15 89 1005.1
20260903122604 72 211 6.0 13.0 0.00 0.14 0.14 91 1004.9
20260903121602 70 173 3.0 14.0 0.06 0.15 0.15 95 1004.5
20260903121547 71 157 5.0 16.0 0.00 0.14 0.14 95 1004.4
20260903120553 70 160 7.0 16.0 0.00 0.14 0.14 97 1004.5
20260903120003 70 176 9.0 17.0 0.15 0.15 0.15 96 1005.0
20260903115555 71 122 5.0 14.0 0.00 0.14 0.14 97 1004.7
20260903114602 71 147 7.0 15.0 0.15 0.15 0.15 97 1004.9
20260903113359 72 160 6.0 19.0 0.05 0.14 0.14 96 1005.6
20260903112331 73 205 11.0 19.0 0.16 0.14 0.14 93 1005.9
20260903111502 74 221 13.0 20.0 0.05 0.05 0.05 90 1006.2
20260903110146 74 251 4.0 8.0 0.00 0.00 0.00 91 1005.9
20260903110104 73 234 5.0 9.0 0.00 0.00 0.00 91 1005.9
20260903104503 73 203 4.0 7.0 0.00 0.00 0.00 92 1005.6
20260903103939 73 176 3.0 6.0 0.00 0.00 0.00 92 1005.6
20260903103102 72 187 4.0 7.0 0.00 0.00 0.00 92 1005.7
20260903102928 73 198 2.0 9.0 0.00 0.00 0.00 92 1005.7
20260903101911 72 213 4.0 9.0 0.00 0.00 0.00 92 1005.9
20260903100910 72 146 3.0 7.0 0.00 0.00 0.00 93 1005.6
20260903100103 71 120 4.0 8.0 0.00 0.00 0.00 93 1005.4
20260903095910 72 97 3.0 5.0 0.00 0.00 0.00 93 1005.4
20260903094503 72 120 3.0 6.0 0.00 0.00 0.00 92 1005.7
20260903093648 72 123 1.0 4.0 0.00 0.00 0.00 93 1005.9
20260903093115 71 154 2.0 5.0 0.00 0.00 0.00 93 1006.0
20260903091459 71 127 2.0 4.0 0.00 0.00 0.00 93 1005.6
20260903090520 71 112 1.0 2.0 0.00 0.00 0.00 94 1005.4
20260903085459 71 77 0.0 1.0 0.00 0.00 0.00 93 1005.3
20260903084502 71 77 1.0 4.0 0.00 0.00 0.00 93 1005.4
20260903084444 71 77 1.0 3.0 0.00 0.00 0.00 93 1005.4
20260903083428 71 72 1.0 3.0 0.00 0.00 0.00 93 1005.2
20260903083103 71 78 2.0 3.0 0.00 0.00 0.00 94 1005.3
20260903081508 70 75 1.0 2.0 0.00 0.00 0.00 93 1005.4
20260903081336 71 74 1.0 1.0 0.00 0.00 0.00 93 1005.4
20260903080107 70 75 0.0 3.0 0.00 0.00 0.00 94 1005.7
20260903075240 71 75 0.0 1.0 0.00 0.00 0.00 95 1005.5
20260903074502 70 75 0.0 2.0 0.00 0.05 0.00 94 1005.7
20260903074257 71 75 0.0 2.0 0.00 0.00 0.00 94 1005.6
20260903073244 71 75 0.0 2.0 0.00 0.00 0.00 93 1005.6
20260903073105 71 75 1.0 3.0 0.00 0.05 0.00 93 1005.7
20260903072306 71 75 0.0 0.0 0.00 0.01 0.00 94 1005.7
20260903071503 71 75 0.0 2.0 0.00 0.05 0.00 94 1005.8
20260903071251 71 75 0.0 1.0 0.00 0.03 0.00 94 1005.8
20260903070248 71 75 0.0 0.0 0.00 0.05 0.00 94 1005.8
20260903064503 71 74 2.0 3.0 0.00 0.12 0.00 93 1005.8
20260903063103 72 72 0.0 0.0 0.00 0.12 0.00 93 1006.1
20260903062955 72 72 0.0 0.0 0.00 0.10 0.00 93 1006.0
20260903061958 72 72 0.0 0.0 0.00 0.12 0.00 92 1006.0
20260903061503 72 72 0.0 0.0 0.00 0.12 0.00 93 1006.1
20260903060922 72 72 0.0 0.0 0.00 0.12 0.00 92 1006.1
20260903055907 73 72 0.0 0.0 0.00 0.12 0.00 92 1006.0
20260903054923 73 72 0.0 2.0 0.00 0.13 0.00 92 1005.9
20260903054503 72 81 1.0 2.0 0.00 0.13 0.00 92 1006.0
20260903053104 72 81 0.0 1.0 0.00 0.13 0.00 92 1006.1
20260903052805 73 81 0.0 0.0 0.00 0.13 0.00 92 1006.0
20260903051739 73 81 0.0 1.0 0.00 0.13 0.00 92 1006.0
20260903051503 72 81 0.0 2.0 0.00 0.13 0.00 92 1006.0
20260903045716 73 81 0.0 0.0 0.00 0.13 0.13 91 1006.1
20260903044507 73 81 1.0 2.0 0.00 0.13 0.13 91 1006.2
20260903043513 74 81 0.0 2.0 0.00 0.13 0.13 90 1006.1
20260903043103 73 81 1.0 2.0 0.00 0.13 0.13 90 1006.3
20260903042457 74 81 1.0 2.0 0.00 0.13 0.13 91 1006.2
20260903041518 73 86 1.0 1.0 0.00 0.13 0.13 90 1006.2
20260903041501 73 86 2.0 2.0 0.00 0.13 0.13 90 1006.4
20260903040453 75 86 0.0 0.0 0.00 0.13 0.13 89 1006.3
20260903035423 74 86 0.0 0.0 0.00 0.13 0.13 89 1006.5
20260903034503 74 86 0.0 1.0 0.00 0.13 0.13 88 1006.5
20260903033332 75 86 1.0 2.0 0.00 0.13 0.13 88 1006.4
20260903033103 75 86 2.0 2.0 0.00 0.13 0.13 88 1006.5
20260903032323 76 86 1.0 2.0 0.00 0.13 0.13 87 1006.4
20260903031502 76 89 2.0 3.0 0.00 0.13 0.13 86 1006.5
20260903031250 76 89 2.0 2.0 0.00 0.13 0.13 86 1006.4
20260903030310 76 98 1.0 2.0 0.00 0.13 0.13 86 1006.4
20260903024502 76 91 1.0 3.0 0.00 0.13 0.13 87 1006.5
20260903024130 76 90 1.0 2.0 0.00 0.13 0.13 86 1006.4
20260903023151 76 90 1.0 1.0 0.00 0.13 0.13 86 1006.4
20260903023124 75 90 2.0 2.0 0.00 0.13 0.13 87 1006.5
20260903022124 75 89 0.0 1.0 0.00 0.13 0.13 88 1006.3
20260903021503 75 89 1.0 2.0 0.00 0.13 0.13 88 1006.4
20260903021112 76 89 1.0 1.0 0.00 0.13 0.13 88 1006.3
20260903020040 76 89 0.0 0.0 0.00 0.13 0.13 88 1006.3
20260903015047 76 89 0.0 1.0 0.00 0.13 0.13 88 1006.2
20260903014503 76 89 1.0 2.0 0.00 0.13 0.13 88 1006.2
20260903014050 77 89 0.0 1.0 0.00 0.13 0.13 88 1006.2
20260903013103 78 89 0.0 0.0 0.00 0.13 0.13 84 1006.2
20260903011854 79 89 0.0 0.0 0.00 0.13 0.13 83 1006.1
20260903011502 79 89 0.0 0.0 0.00 0.13 0.13 83 1005.9
20260903010907 80 89 0.0 0.0 0.00 0.13 0.13 80 1005.9
20260903005842 80 89 0.0 0.0 0.00 0.13 0.13 80 1005.8
20260903004822 81 79 0.0 1.0 0.00 0.13 0.13 78 1005.7
20260903004502 82 79 0.0 1.0 0.00 0.13 0.13 77 1005.7
20260903003748 82 79 0.0 0.0 0.00 0.13 0.13 76 1005.7
20260903003106 83 79 1.0 2.0 0.00 0.13 0.13 74 1005.7
20260903002734 83 77 0.0 1.0 0.00 0.13 0.13 73 1005.7
20260903001746 84 78 0.0 1.0 0.00 0.13 0.13 74 1005.8
20260903001502 84 78 0.0 2.0 0.00 0.13 0.13 74 1005.8
20260903000104 84 79 0.0 2.0 0.00 0.13 0.13 75 1005.8
20260902235612 85 79 0.0 2.0 0.00 0.13 0.13 74 1005.8
20260902234559 85 84 2.0 4.0 0.00 0.13 0.13 72 1005.8
20260902234507 85 85 1.0 5.0 0.00 0.13 0.13 71 1005.9
20260902233620 86 83 2.0 4.0 0.00 0.13 0.13 69 1005.8
20260902233103 85 71 2.0 3.0 0.00 0.13 0.13 69 1005.9
20260902232603 86 98 1.0 4.0 0.00 0.13 0.13 68 1005.9
20260902231623 86 113 1.0 4.0 0.00 0.13 0.13 66 1005.9
20260902231502 86 113 1.0 5.0 0.00 0.13 0.13 66 1006.0
20260902230605 87 116 0.0 3.0 0.00 0.13 0.13 68 1006.0
20260902230104 86 91 0.0 5.0 0.00 0.13 0.13 66 1006.0
20260902225610 86 103 2.0 4.0 0.00 0.13 0.13 67 1006.0
20260902224505 86 68 3.0 5.0 0.00 0.13 0.13 68 1006.0
20260902223106 86 79 1.0 5.0 0.00 0.13 0.13 67 1006.0
20260902222235 87 74 0.0 5.0 0.00 0.13 0.13 68 1005.9
20260902220004 86 129 2.0 6.0 0.00 0.13 0.13 65 1006.1
20260902215002 87 68 1.0 3.0 0.00 0.13 0.13 66 1006.0
20260902214603 87 108 1.0 4.0 0.00 0.13 0.13 64 1006.2
20260902213940 88 262 0.0 6.0 0.00 0.13 0.13 66 1006.2
20260902213002 87 207 1.0 7.0 0.00 0.13 0.13 65 1006.3
20260902211825 87 86 0.0 4.0 0.00 0.13 0.13 64 1006.3
20260902211608 87 32 0.0 4.0 0.00 0.13 0.13 65 1006.4
20260902210004 85 102 2.0 7.0 0.00 0.13 0.13 68 1006.5
20260902205602 86 118 1.0 6.0 0.00 0.13 0.13 67 1006.6
20260902204605 85 74 0.0 7.0 0.00 0.13 0.13 67 1006.6
20260902203507 85 166 1.0 6.0 0.00 0.13 0.13 67 1006.5
20260902203003 84 76 1.0 7.0 0.00 0.13 0.13 68 1006.5
20260902202449 84 59 3.0 6.0 0.00 0.13 0.13 68 1006.4
20260902201607 84 94 4.0 7.0 0.00 0.13 0.13 70 1006.5
20260902201454 84 94 3.0 7.0 0.00 0.13 0.13 71 1006.5
20260902200419 84 79 3.0 7.0 0.00 0.13 0.13 70 1006.7
20260902200003 84 69 3.0 8.0 0.00 0.13 0.13 70 1006.8
20260902195415 84 64 1.0 4.0 0.00 0.13 0.13 69 1006.9
20260902194604 84 59 2.0 5.0 0.00 0.13 0.13 69 1007.2
20260902194432 84 89 1.0 5.0 0.00 0.13 0.13 69 1007.2
20260902193414 84 12 1.0 6.0 0.00 0.13 0.13 70 1007.2
20260902193003 83 103 2.0 7.0 0.00 0.13 0.13 68 1007.3
20260902192404 84 79 1.0 6.0 0.00 0.13 0.13 69 1007.3
20260902191603 83 133 1.0 4.0 0.00 0.13 0.13 69 1007.3
20260902191331 83 139 1.0 6.0 0.00 0.13 0.13 68 1007.3
20260902190259 83 40 2.0 5.0 0.00 0.13 0.13 69 1007.4
20260902185225 83 84 0.0 4.0 0.00 0.13 0.13 69 1007.4
20260902183217 82 96 2.0 7.0 0.00 0.13 0.13 73 1007.7
20260902183102 81 91 3.0 7.0 0.00 0.13 0.13 73 1007.8